Toronto Pearson, Ontario

8:49 AM EDT on May 24, 2017 (GMT -0400)
Toronto-Pearson International

Weather History for CYYZ - June, 2013

Change the Weather History Date:

Sunday, June 16, 2013

  Actual Average Record
Temperature  
Mean Temperature 70 °F -  
Max Temperature 79 °F 77 °F 84 °F (2000)
Min Temperature 60 °F 55 °F 48 °F (1999)
Cooling Degree Days 4    
Growing Degree Days 20 (Base 50)    
Moisture  
Dew Point 60 °F    
Average Humidity 76    
Maximum Humidity 100    
Minimum Humidity 49    
Precipitation  
Precipitation 0.28 in 0.10 in - ()
Sea Level Pressure  
Sea Level Pressure 29.78 in    
Wind  
Wind Speed 8 mph ()    
Max Wind Speed 20 mph    
Max Gust Speed 25 mph    
Visibility 11.0 miles    
Events Rain , Thunderstorm    
Averages and records for this station are not official NWS values.
T = Trace of Precipitation, MM = Missing Value Source: Averaged Metar Reports

Daily Weather History Graph

Daily Weather History Graph

Search for Another Location

Airport or City:

Trip Planner

Search our weather history database for the weather conditions in past years. The results will help you decide how hot, cold, wet, or windy it might be!

Date:

Astronomy

Jun. 16, 2013 Rise Set
Actual Time 5:36 AM EDT 9:02 PM EDT
Civil Twilight 5:00 AM EDT 9:38 PM EDT
Nautical Twilight 4:13 AM EDT 10:25 PM EDT
Astronomical Twilight 3:13 AM EDT 11:25 PM EDT
Moon 1:24 PM EDT (6/16) 12:53 AM EDT (6/16)
Length of Visible Light 16h 38m
Length of Day
15h 26m
Waxing Crescent, 49% of the Moon is Illuminated
Jun 16
Waxing Crescent
Jun 16
First Quarter
Jun 23
Full
Jun 30
Last Quarter
Jul 8
New

Hourly Weather History & Observations

Time (EDT) Temp. Dew Point Humidity Pressure Visibility Wind Dir Wind Speed Gust Speed Precip Events Conditions
12:00 AM 68.0 °F 48.2 °F 49% 29.94 in 15.0 mi South 3.5 mph - N/A   Mostly Cloudy
1:00 AM 68.0 °F 48.2 °F 49% 29.91 in 15.0 mi SSE 3.5 mph - N/A   Scattered Clouds
2:00 AM 66 °F 54 °F 56% 29.90 in 15 mi South 4.6 mph - -   Overcast
2:00 AM 66.2 °F 53.6 °F 64% 29.90 in 15.0 mi SSW 4.6 mph - N/A   Overcast
3:00 AM 66.2 °F 57.2 °F 73% 29.86 in 15.0 mi South 3.5 mph - N/A   Overcast
4:00 AM 66.2 °F 57.2 °F 73% 29.84 in 15.0 mi South 4.6 mph - N/A   Overcast
5:00 AM 66.2 °F 57.2 °F 73% 29.83 in 15.0 mi SW 10.4 mph - N/A   Overcast
5:47 AM 66.2 °F 57.2 °F 73% 29.81 in 15.0 mi SW 9.2 mph - N/A Rain Light Rain
6:00 AM 66.2 °F 57.2 °F 73% 29.81 in 10.0 mi SW 9.2 mph - N/A Rain Light Rain
7:00 AM 62.6 °F 59.0 °F 88% 29.79 in 8.0 mi South 5.8 mph - N/A Rain Light Rain
8:00 AM 62 °F 59 °F 88% 29.77 in 5 mi South 6.9 mph - - Rain Light Rain
8:00 AM 62.6 °F 59.0 °F 88% 29.76 in 5.0 mi South 6.9 mph - N/A Rain Light Rain
8:46 AM 62.6 °F 60.8 °F 94% 29.75 in 2.5 mi South 3.5 mph - N/A Rain Light Rain
8:52 AM 62.6 °F 60.8 °F 94% 29.75 in 1.8 mi South 2.3 mph - N/A Rain Rain
9:00 AM 62.6 °F 60.8 °F 94% 29.75 in 2.5 mi South 8.1 mph - N/A Rain Heavy Rain
9:18 AM 60.8 °F 60.8 °F 100% 29.74 in 3.0 mi South 4.6 mph - N/A Rain Light Rain
9:29 AM 62.6 °F 60.8 °F 94% 29.74 in 2.5 mi SSW 8.1 mph - N/A Rain Heavy Rain
9:39 AM 62.6 °F 60.8 °F 94% 29.73 in 4.0 mi SSW 5.8 mph - N/A Rain Light Rain
10:00 AM 62.6 °F 60.8 °F 94% 29.72 in 4.0 mi SW 5.8 mph - N/A Rain Light Rain
10:52 AM 64.4 °F 62.6 °F 94% 29.73 in 2.0 mi WSW 9.2 mph - N/A Rain Light Rain
11:00 AM 64.4 °F 62.6 °F 94% 29.72 in 2.0 mi West 11.5 mph - N/A Rain Light Rain
11:12 AM 66.2 °F 64.4 °F 94% 29.71 in 4.0 mi WSW 8.1 mph - N/A Rain Light Rain
11:31 AM 68.0 °F 64.4 °F 88% 29.70 in 8.0 mi West 11.5 mph - N/A   Mostly Cloudy
12:00 PM 69.8 °F 66.2 °F 88% 29.70 in 10.0 mi West 16.1 mph - N/A   Mostly Cloudy
1:00 PM 75.2 °F 62.6 °F 65% 29.72 in 15.0 mi WNW 18.4 mph - N/A   Mostly Cloudy
2:00 PM 77 °F 62 °F 50% 29.74 in 15 mi WNW 17.3 mph - -   Partly Cloudy
2:00 PM 77.0 °F 62.6 °F 61% 29.73 in 15.0 mi WNW 19.6 mph - N/A   Mostly Cloudy
3:00 PM 77.0 °F 62.6 °F 61% 29.74 in 15.0 mi WNW 12.7 mph - N/A   Mostly Cloudy
4:00 PM 77.0 °F 60.8 °F 57% 29.75 in 15.0 mi West 17.3 mph - N/A   Mostly Cloudy
5:00 PM 77.0 °F 60.8 °F 57% 29.77 in 15.0 mi West 17.3 mph 24.2 mph N/A   Partly Cloudy
6:00 PM 77.0 °F 60.8 °F 57% 29.77 in 15.0 mi West 19.6 mph - N/A   Partly Cloudy
7:00 PM 75.2 °F 60.8 °F 61% 29.79 in 15.0 mi West 17.3 mph 25.3 mph N/A   Scattered Clouds
8:00 PM 73 °F 62 °F 59% 29.80 in 15 mi West 16.1 mph - -   Scattered Clouds
8:00 PM 73.4 °F 60.8 °F 65% 29.80 in 15.0 mi WSW 18.4 mph - N/A   Scattered Clouds
9:00 PM 69.8 °F 60.8 °F 73% 29.80 in 15.0 mi WSW 15.0 mph - N/A   Partly Cloudy
9:48 PM 68.0 °F 60.8 °F 78% 29.80 in 15.0 mi SW 9.2 mph - N/A Thunderstorm Thunderstorm
10:00 PM 69.8 °F 60.8 °F 73% 29.80 in 15.0 mi SW 8.1 mph - N/A Thunderstorm Thunderstorm
10:13 PM 69.8 °F 60.8 °F 73% 29.81 in 15.0 mi SW 10.4 mph - N/A   Partly Cloudy
11:00 PM 69.8 °F 62.6 °F 78% 29.81 in 15.0 mi SW 12.7 mph - N/A   Mostly Cloudy
11:13 PM 69.8 °F 60.8 °F 73% 29.81 in 15.0 mi SW 13.8 mph - N/A Rain Light Rain Showers
11:40 PM 68.0 °F 62.6 °F 83% 29.83 in 12.0 mi West 13.8 mph - N/A Rain , Thunderstorm Light Thunderstorms and Rain
11:55 PM 68.0 °F 62.6 °F 83% 29.80 in 15.0 mi West 9.2 mph - N/A Rain Light Rain Showers